Time,TemperatureF,DewpointF,PressureIn,WindDirection,WindDirectionDegrees,WindSpeedMPH,WindSpeedGustMPH,Humidity,HourlyPrecipIn,Conditions,Clouds,dailyrainin,SolarRadiationWatts/m^2,SoftwareType,DateUTC
2013-01-23 00:02:00,22.0,2.0,-100.00,ENE,73,3.0,4.0,42,0.00,,,0.00,0.000000,,2013-01-23 06:02:00,
2013-01-23 00:12:00,22.0,2.0,-100.00,ENE,73,3.0,4.0,42,0.00,,,0.00,0.000000,,2013-01-23 06:12:00,
2013-01-23 00:22:00,22.0,2.0,-100.00,ENE,73,3.0,4.0,42,0.00,,,0.00,0.000000,,2013-01-23 06:22:00,
2013-01-23 00:53:00,21.0,3.0,-100.00,East,93,2.0,4.0,45,0.00,,,0.00,0.000000,,2013-01-23 06:53:00,
2013-01-23 01:02:00,21.0,3.0,-100.00,East,93,2.0,4.0,45,0.00,,,0.00,0.000000,,2013-01-23 07:02:00,
2013-01-23 01:22:00,21.0,3.0,-100.00,East,93,2.0,4.0,45,0.00,,,0.00,0.000000,,2013-01-23 07:22:00,
2013-01-23 01:53:00,20.0,3.0,-100.00,ESE,110,0.0,3.0,46,0.00,,,0.00,0.000000,,2013-01-23 07:53:00,
2013-01-23 02:02:00,20.0,3.0,-100.00,ESE,110,0.0,3.0,46,0.00,,,0.00,0.000000,,2013-01-23 08:02:00,
2013-01-23 02:13:00,20.0,3.0,-100.00,ESE,110,0.0,3.0,46,0.00,,,0.00,0.000000,,2013-01-23 08:13:00,
2013-01-23 02:22:00,20.0,3.0,-100.00,ESE,110,0.0,3.0,46,0.00,,,0.00,0.000000,,2013-01-23 08:22:00,
2013-01-23 02:53:00,18.0,6.0,-100.00,East,92,2.0,3.0,58,0.00,,,0.00,0.000000,,2013-01-23 08:53:00,
2013-01-23 03:03:00,18.0,6.0,-100.00,East,92,2.0,3.0,58,0.00,,,0.00,0.000000,,2013-01-23 09:03:00,
2013-01-23 03:12:00,18.0,6.0,-100.00,East,92,2.0,3.0,58,0.00,,,0.00,0.000000,,2013-01-23 09:12:00,
2013-01-23 03:22:00,18.0,6.0,-100.00,East,92,2.0,3.0,58,0.00,,,0.00,0.000000,,2013-01-23 09:22:00,
2013-01-23 03:53:00,18.0,4.0,-100.00,ESE,116,2.0,3.0,54,0.00,,,0.00,0.000000,,2013-01-23 09:53:00,
2013-01-23 04:03:00,18.0,4.0,-100.00,ESE,116,2.0,3.0,54,0.00,,,0.00,0.000000,,2013-01-23 10:03:00,
2013-01-23 04:12:00,18.0,4.0,-100.00,ESE,116,2.0,3.0,54,0.00,,,0.00,0.000000,,2013-01-23 10:12:00,
2013-01-23 04:23:00,18.0,4.0,-100.00,ESE,116,2.0,3.0,54,0.00,,,0.00,0.000000,,2013-01-23 10:23:00,
2013-01-23 04:53:00,17.0,7.0,-100.00,East,91,2.0,2.0,63,0.00,,,0.00,0.000000,,2013-01-23 10:53:00,
2013-01-23 05:02:00,17.0,7.0,-100.00,East,91,2.0,2.0,63,0.00,,,0.00,0.000000,,2013-01-23 11:02:00,
2013-01-23 05:12:00,17.0,7.0,-100.00,East,91,2.0,2.0,63,0.00,,,0.00,0.000000,,2013-01-23 11:12:00,
2013-01-23 05:22:00,17.0,7.0,-100.00,East,91,2.0,2.0,63,0.00,,,0.00,0.000000,,2013-01-23 11:22:00,
2013-01-23 05:53:00,16.0,9.0,-100.00,East,91,2.0,4.0,72,0.00,,,0.00,0.000000,,2013-01-23 11:53:00,
2013-01-23 06:03:00,16.0,9.0,-100.00,East,91,2.0,4.0,72,0.00,,,0.00,0.000000,,2013-01-23 12:03:00,
2013-01-23 06:12:00,16.0,9.0,-100.00,East,91,2.0,4.0,72,0.00,,,0.00,0.000000,,2013-01-23 12:12:00,
2013-01-23 06:22:00,16.0,9.0,-100.00,East,91,2.0,4.0,72,0.00,,,0.00,0.000000,,2013-01-23 12:22:00,
2013-01-23 06:53:00,17.0,8.0,-100.00,ESE,103,2.0,4.0,67,0.00,,,0.00,0.000000,,2013-01-23 12:53:00,
2013-01-23 07:04:00,17.0,8.0,-100.00,ESE,103,2.0,4.0,67,0.00,,,0.00,0.000000,,2013-01-23 13:04:00,
2013-01-23 07:13:00,17.0,8.0,-100.00,ESE,103,2.0,4.0,67,0.00,,,0.00,0.000000,,2013-01-23 13:13:00,
2013-01-23 07:23:00,17.0,8.0,-100.00,ESE,103,2.0,4.0,67,0.00,,,0.00,0.000000,,2013-01-23 13:23:00,
2013-01-23 07:53:00,18.0,8.0,-100.00,East,83,3.0,4.0,65,0.00,,,-99.99,8.000000,,2013-01-23 13:53:00,
2013-01-23 08:03:00,18.0,8.0,-100.00,East,83,3.0,4.0,65,0.00,,,-99.99,8.000000,,2013-01-23 14:03:00,
2013-01-23 08:12:00,18.0,8.0,-100.00,East,83,3.0,4.0,65,0.00,,,-99.99,8.000000,,2013-01-23 14:12:00,
2013-01-23 08:23:00,18.0,8.0,-100.00,East,83,3.0,4.0,65,0.00,,,-99.99,8.000000,,2013-01-23 14:23:00,
2013-01-23 08:53:00,24.0,12.0,-100.00,East,86,3.0,5.0,59,0.00,,,0.00,152.000000,,2013-01-23 14:53:00,
2013-01-23 09:03:00,24.0,12.0,-100.00,East,86,3.0,5.0,59,0.00,,,0.00,152.000000,,2013-01-23 15:03:00,
2013-01-23 09:12:00,24.0,12.0,-100.00,East,86,3.0,5.0,59,0.00,,,0.00,152.000000,,2013-01-23 15:12:00,
2013-01-23 09:23:00,24.0,12.0,-100.00,East,86,3.0,5.0,59,0.00,,,0.00,152.000000,,2013-01-23 15:23:00,
2013-01-23 09:53:00,33.0,12.0,-100.00,SSE,149,4.0,7.0,41,0.00,,,0.00,387.000000,,2013-01-23 15:53:00,
2013-01-23 10:03:00,33.0,12.0,-100.00,SSE,149,4.0,7.0,41,0.00,,,0.00,387.000000,,2013-01-23 16:03:00,
2013-01-23 10:12:00,33.0,12.0,-100.00,SSE,149,4.0,7.0,41,0.00,,,0.00,387.000000,,2013-01-23 16:12:00,
2013-01-23 10:23:00,33.0,12.0,-100.00,SSE,149,4.0,7.0,41,0.00,,,0.00,387.000000,,2013-01-23 16:23:00,
2013-01-23 10:53:00,40.0,15.0,-100.00,South,189,5.0,10.0,35,0.00,,,0.00,550.000000,,2013-01-23 16:53:00,
2013-01-23 11:03:00,40.0,15.0,-100.00,South,189,5.0,10.0,35,0.00,,,0.00,550.000000,,2013-01-23 17:03:00,
2013-01-23 11:12:00,40.0,15.0,-100.00,South,189,5.0,10.0,35,0.00,,,0.00,550.000000,,2013-01-23 17:12:00,
2013-01-23 11:22:00,40.0,15.0,-100.00,South,189,5.0,10.0,35,0.00,,,0.00,550.000000,,2013-01-23 17:22:00,
2013-01-23 11:53:00,44.0,20.0,-100.00,WSW,251,5.0,12.0,38,0.00,,,0.00,655.000000,,2013-01-23 17:53:00,
2013-01-23 12:03:00,44.0,20.0,-100.00,WSW,251,5.0,12.0,38,0.00,,,0.00,655.000000,,2013-01-23 18:03:00,
2013-01-23 12:12:00,44.0,20.0,-100.00,WSW,251,5.0,12.0,38,0.00,,,0.00,655.000000,,2013-01-23 18:12:00,
2013-01-23 12:23:00,44.0,20.0,-100.00,WSW,251,5.0,12.0,38,0.00,,,0.00,655.000000,,2013-01-23 18:23:00,
2013-01-23 12:53:00,45.0,21.0,-100.00,SW,222,7.0,14.0,38,0.00,,,0.00,694.000000,,2013-01-23 18:53:00,
2013-01-23 13:03:00,45.0,21.0,-100.00,SW,222,7.0,14.0,38,0.00,,,0.00,694.000000,,2013-01-23 19:03:00,
2013-01-23 13:13:00,45.0,21.0,-100.00,SW,222,7.0,14.0,38,0.00,,,0.00,694.000000,,2013-01-23 19:13:00,
2013-01-23 13:23:00,45.0,21.0,-100.00,SW,222,7.0,14.0,38,0.00,,,0.00,694.000000,,2013-01-23 19:23:00,
2013-01-23 13:53:00,49.0,24.0,-100.00,SW,214,6.0,14.0,37,0.00,,,0.00,649.000000,,2013-01-23 19:53:00,
2013-01-23 14:03:00,49.0,24.0,-100.00,SW,214,6.0,14.0,37,0.00,,,0.00,649.000000,,2013-01-23 20:03:00,
2013-01-23 14:13:00,49.0,24.0,-100.00,SW,214,6.0,14.0,37,0.00,,,0.00,649.000000,,2013-01-23 20:13:00,
2013-01-23 14:23:00,49.0,24.0,-100.00,SW,214,6.0,14.0,37,0.00,,,0.00,649.000000,,2013-01-23 20:23:00,
2013-01-23 14:54:00,51.0,26.0,-100.00,SSW,206,7.0,14.0,38,0.00,,,0.00,552.000000,,2013-01-23 20:54:00,
2013-01-23 15:03:00,51.0,26.0,-100.00,SSW,206,7.0,14.0,38,0.00,,,0.00,552.000000,,2013-01-23 21:03:00,
2013-01-23 15:12:00,51.0,26.0,-100.00,SSW,206,7.0,14.0,38,0.00,,,0.00,552.000000,,2013-01-23 21:12:00,
2013-01-23 15:23:00,51.0,26.0,-100.00,SSW,206,7.0,14.0,38,0.00,,,0.00,552.000000,,2013-01-23 21:23:00,
2013-01-23 15:53:00,52.0,29.0,-100.00,WSW,254,6.0,14.0,41,0.00,,,0.00,391.000000,,2013-01-23 21:53:00,
2013-01-23 16:02:00,52.0,29.0,-100.00,WSW,254,6.0,14.0,41,0.00,,,0.00,391.000000,,2013-01-23 22:02:00,
2013-01-23 16:12:00,52.0,29.0,-100.00,WSW,254,6.0,14.0,41,0.00,,,0.00,391.000000,,2013-01-23 22:12:00,
2013-01-23 16:23:00,52.0,29.0,-100.00,WSW,254,6.0,14.0,41,0.00,,,0.00,391.000000,,2013-01-23 22:23:00,
2013-01-23 17:03:00,50.0,31.0,-100.00,SW,229,6.0,14.0,48,0.00,,,0.00,170.000000,,2013-01-23 23:03:00,
2013-01-23 17:12:00,50.0,31.0,-100.00,SW,229,6.0,14.0,48,0.00,,,0.00,170.000000,,2013-01-23 23:12:00,
2013-01-23 17:23:00,50.0,31.0,-100.00,SW,229,6.0,14.0,48,0.00,,,0.00,170.000000,,2013-01-23 23:23:00,
2013-01-23 17:53:00,46.0,30.0,-100.00,WSW,240,3.0,13.0,53,0.00,,,0.00,45.000000,,2013-01-23 23:53:00,
2013-01-23 18:03:00,46.0,30.0,-100.00,WSW,240,3.0,13.0,53,0.00,,,0.00,45.000000,,2013-01-24 00:03:00,
2013-01-23 18:12:00,46.0,30.0,-100.00,WSW,240,3.0,13.0,53,0.00,,,0.00,45.000000,,2013-01-24 00:12:00,
2013-01-23 18:22:00,46.0,30.0,-100.00,WSW,240,3.0,13.0,53,0.00,,,0.00,45.000000,,2013-01-24 00:22:00,
2013-01-23 18:53:00,43.0,31.0,-100.00,West,269,2.0,4.0,62,0.00,,,0.00,0.000000,,2013-01-24 00:53:00,
2013-01-23 19:03:00,43.0,31.0,-100.00,West,269,2.0,4.0,62,0.00,,,0.00,0.000000,,2013-01-24 01:03:00,
2013-01-23 19:12:00,43.0,31.0,-100.00,West,269,2.0,4.0,62,0.00,,,0.00,0.000000,,2013-01-24 01:12:00,
2013-01-23 19:23:00,43.0,31.0,-100.00,West,269,2.0,4.0,62,0.00,,,0.00,0.000000,,2013-01-24 01:23:00,
2013-01-23 19:53:00,40.0,31.0,-100.00,WNW,289,3.0,5.0,69,0.00,,,0.00,0.000000,,2013-01-24 01:53:00,
2013-01-23 20:02:00,40.0,31.0,-100.00,WNW,289,3.0,5.0,69,0.00,,,0.00,0.000000,,2013-01-24 02:02:00,
2013-01-23 20:12:00,40.0,31.0,-100.00,WNW,289,3.0,5.0,69,0.00,,,0.00,0.000000,,2013-01-24 02:12:00,
2013-01-23 20:22:00,40.0,31.0,-100.00,WNW,289,3.0,5.0,69,0.00,,,0.00,0.000000,,2013-01-24 02:22:00,
2013-01-23 21:02:00,38.0,31.0,-100.00,West,262,3.0,5.0,75,0.00,,,0.00,0.000000,,2013-01-24 03:02:00,
2013-01-23 21:12:00,38.0,31.0,-100.00,West,262,3.0,5.0,75,0.00,,,0.00,0.000000,,2013-01-24 03:12:00,
2013-01-23 21:22:00,38.0,31.0,-100.00,West,262,3.0,5.0,75,0.00,,,0.00,0.000000,,2013-01-24 03:22:00,
2013-01-23 21:53:00,37.0,30.0,-100.00,West,272,2.0,5.0,76,0.00,,,0.00,0.000000,,2013-01-24 03:53:00,
2013-01-23 22:02:00,37.0,30.0,-100.00,West,272,2.0,5.0,76,0.00,,,0.00,0.000000,,2013-01-24 04:02:00,
2013-01-23 22:12:00,37.0,30.0,-100.00,West,272,2.0,5.0,76,0.00,,,0.00,0.000000,,2013-01-24 04:12:00,
2013-01-23 22:22:00,37.0,30.0,-100.00,West,272,2.0,5.0,76,0.00,,,0.00,0.000000,,2013-01-24 04:22:00,
2013-01-23 22:53:00,36.0,30.0,-100.00,WSW,251,1.0,2.0,79,0.00,,,0.00,0.000000,,2013-01-24 04:53:00,
2013-01-23 23:03:00,36.0,30.0,-100.00,WSW,251,1.0,2.0,79,0.00,,,0.00,0.000000,,2013-01-24 05:03:00,
2013-01-23 23:12:00,36.0,30.0,-100.00,WSW,251,1.0,2.0,79,0.00,,,0.00,0.000000,,2013-01-24 05:12:00,
2013-01-23 23:22:00,36.0,30.0,-100.00,WSW,251,1.0,2.0,79,0.00,,,0.00,0.000000,,2013-01-24 05:22:00,
2013-01-23 23:53:00,34.0,30.0,-100.00,WNW,284,2.0,4.0,84,0.00,,,0.00,0.000000,,2013-01-24 05:53:00,